Location: Newark
(49.8969°N, 3.3422°E)
Time: 20:53:07
(UTC+00:00)

A-11 Canister half - Pass Details

Date: 30 January 2020
Orbit: 1517 x 1683 km, 47.2° (Epoch: 22 February)

Event Time Altitude Azimuth Distance (km) Brightness Sun altitude
Rises 05:04:29 0° 288° (WNW) 4,671 - -22.4°
Reaches altitude 10° 05:08:08 10° 276° (W) 3,681 - -21.8°
Exits shadow 05:13:32 24° 242° (WSW) 2,722 9.8 -20.9°
Maximum altitude 05:15:14 26° 225° (SW) 2,652 9.9 -20.6°
Drops below altitude 10° 05:22:24 10° 174° (S) 3,699 11.1 -19.5°
Sets 05:26:06 0° 162° (SSE) 4,697 11.9 -18.9°
